Tiempo cada hora Murrieta

Hoy, 28 Octubre, Miércoles

Tiempo Temperatura Precipitaciones Viento Presión Humedad
00:00 +8°C° 0 mm 0 mps 728 mmHg 47%
01:00 +8°C° 0 mm 0 mps 728 mmHg 47%
02:00 +8°C° 0 mm 0 mps 728 mmHg 48%
03:00 +9°C° 0 mm 1 mps 728 mmHg 49%
04:00 +9°C° 0 mm 1 mps 728 mmHg 49%
05:00 +11°C° 0 mm 1 mps 728 mmHg 42%
06:00 +11°C° 0 mm 0 mps 729 mmHg 35%
07:00 +13°C° 0 mm 0 mps 729 mmHg 28%
08:00 +18°C° 0 mm 1 mps 729 mmHg 23%
09:00 +21°C° 0 mm 1 mps 730 mmHg 17%
10:00 +24°C° 0 mm 1 mps 730 mmHg 12%
11:00 +25°C° 0 mm 2 mps 730 mmHg 12%
12:00 +26°C° 0 mm 3 mps 729 mmHg 12%
13:00 +27°C° 0 mm 3 mps 729 mmHg 12%
14:00 +26°C° 0 mm 3 mps 729 mmHg 14%
15:00 +25°C° 0 mm 3 mps 728 mmHg 17%
16:00 +24°C° 0 mm 2 mps 728 mmHg 19%
17:00 +19°C° 0 mm 2 mps 728 mmHg 34%
18:00 +15°C° 0 mm 1 mps 728 mmHg 49%
19:00 +10°C° 0 mm 0 mps 728 mmHg 64%
20:00 +10°C° 0 mm 0 mps 728 mmHg 64%
21:00 +9°C° 0 mm 0 mps 728 mmHg 63%
22:00 +9°C° 0 mm 0 mps 728 mmHg 63%
23:00 +9°C° 0 mm 0 mps 728 mmHg 62%

Mañana, 29 Octubre, Jueves

Tiempo Temperatura Precipitaciones Viento Presión Humedad
00:00 +9°C° 0 mm 0 mps 727 mmHg 62%
01:00 +10°C° 0 mm 1 mps 727 mmHg 61%
02:00 +9°C° 0 mm 0 mps 727 mmHg 61%
03:00 +9°C° 0 mm 0 mps 727 mmHg 61%
04:00 +9°C° 0 mm 0 mps 727 mmHg 60%
05:00 +10°C° 0 mm 0 mps 727 mmHg 52%
06:00 +12°C° 0 mm 0 mps 728 mmHg 45%
07:00 +14°C° 0 mm 0 mps 728 mmHg 37%
08:00 +18°C° 0 mm 0 mps 729 mmHg 29%
09:00 +24°C° 0 mm 1 mps 729 mmHg 21%
10:00 +27°C° 0 mm 1 mps 730 mmHg 13%
11:00 +28°C° 0 mm 1 mps 729 mmHg 13%
12:00 +29°C° 0 mm 2 mps 729 mmHg 14%
13:00 +30°C° 0 mm 3 mps 728 mmHg 14%
14:00 +29°C° 0 mm 2 mps 728 mmHg 17%
15:00 +28°C° 0 mm 2 mps 728 mmHg 20%
16:00 +26°C° 0 mm 2 mps 727 mmHg 24%
17:00 +22°C° 0 mm 1 mps 727 mmHg 38%
18:00 +18°C° 0 mm 1 mps 727 mmHg 52%
19:00 +12°C° 0 mm 0 mps 727 mmHg 67%
20:00 +12°C° 0 mm 0 mps 727 mmHg 66%
21:00 +11°C° 0 mm 0 mps 727 mmHg 65%
22:00 +11°C° 0 mm 0 mps 727 mmHg 65%
23:00 +11°C° 0 mm 0 mps 727 mmHg 64%

Pasado mañana, 30 Octubre, Viernes

Tiempo Temperatura Precipitaciones Viento Presión Humedad
00:00 +11°C° 0 mm 0 mps 727 mmHg 64%
01:00 +10°C° 0 mm 0 mps 726 mmHg 63%
02:00 +10°C° 0 mm 0 mps 726 mmHg 62%
03:00 +10°C° 0 mm 0 mps 726 mmHg 61%
04:00 +10°C° 0 mm 0 mps 726 mmHg 60%
05:00 +12°C° 0 mm 0 mps 727 mmHg 51%
06:00 +14°C° 0 mm 0 mps 727 mmHg 43%
07:00 +15°C° 0 mm 0 mps 727 mmHg 35%
08:00 +19°C° 0 mm 0 mps 728 mmHg 28%
09:00 +24°C° 0 mm 1 mps 728 mmHg 21%
10:00 +28°C° 0 mm 1 mps 729 mmHg 14%
11:00 +29°C° 0 mm 2 mps 728 mmHg 14%
12:00 +30°C° 0 mm 2 mps 728 mmHg 14%
13:00 +30°C° 0 mm 3 mps 727 mmHg 15%
14:00 +29°C° 0 mm 3 mps 727 mmHg 17%
15:00 +28°C° 0 mm 2 mps 727 mmHg 20%
16:00 +27°C° 0 mm 2 mps 726 mmHg 22%
17:00 +23°C° 0 mm 1 mps 726 mmHg 36%
18:00 +19°C° 0 mm 1 mps 726 mmHg 50%
19:00 +13°C° 0 mm 0 mps 726 mmHg 64%
20:00 +12°C° 0 mm 0 mps 726 mmHg 64%
21:00 +12°C° 0 mm 0 mps 727 mmHg 63%
22:00 +12°C° 0 mm 0 mps 727 mmHg 62%
23:00 +12°C° 0 mm 0 mps 727 mmHg 62%

31 Octubre, Sábado

Tiempo Temperatura Precipitaciones Viento Presión Humedad
00:00 +12°C° 0 mm 0 mps 726 mmHg 61%
01:00 +11°C° 0 mm 0 mps 726 mmHg 60%
02:00 +11°C° 0 mm 0 mps 726 mmHg 59%
03:00 +11°C° 0 mm 0 mps 726 mmHg 58%
04:00 +11°C° 0 mm 0 mps 726 mmHg 57%
05:00 +12°C° 0 mm 0 mps 727 mmHg 48%
06:00 +14°C° 0 mm 0 mps 727 mmHg 39%
07:00 +16°C° 0 mm 0 mps 728 mmHg 30%
08:00 +20°C° 0 mm 0 mps 728 mmHg 24%
09:00 +26°C° 0 mm 1 mps 729 mmHg 18%
10:00 +30°C° 0 mm 1 mps 729 mmHg 11%
11:00 +30°C° 0 mm 1 mps 729 mmHg 11%
12:00 +31°C° 0 mm 2 mps 729 mmHg 11%
13:00 +33°C° 0 mm 3 mps 728 mmHg 11%
14:00 +31°C° 0 mm 3 mps 728 mmHg 13%
15:00 +30°C° 0 mm 2 mps 728 mmHg 16%
16:00 +28°C° 0 mm 2 mps 728 mmHg 18%
17:00 +24°C° 0 mm 1 mps 728 mmHg 31%
18:00 +20°C° 0 mm 1 mps 728 mmHg 44%
19:00 +14°C° 0 mm 0 mps 728 mmHg 58%
20:00 +13°C° 0 mm 0 mps 728 mmHg 57%
21:00 +13°C° 0 mm 0 mps 728 mmHg 57%
22:00 +13°C° 0 mm 0 mps 728 mmHg 57%
23:00 +13°C° 0 mm 0 mps 728 mmHg 55%

1 Noviembre, Domingo

Tiempo Temperatura Precipitaciones Viento Presión Humedad
00:00 +14°C° 0 mm 1 mps 728 mmHg 53%
01:00 +14°C° 0 mm 1 mps 728 mmHg 52%
02:00 +14°C° 0 mm 1 mps 728 mmHg 50%
03:00 +14°C° 0 mm 1 mps 728 mmHg 47%
04:00 +14°C° 0 mm 1 mps 728 mmHg 45%
05:00 +15°C° 0 mm 1 mps 729 mmHg 37%
06:00 +18°C° 0 mm 1 mps 729 mmHg 28%
07:00 +19°C° 0 mm 1 mps 730 mmHg 20%
08:00 +23°C° 0 mm 1 mps 730 mmHg 15%
09:00 +27°C° 0 mm 1 mps 731 mmHg 11%
10:00 +32°C° 0 mm 1 mps 732 mmHg 7%
11:00 +32°C° 0 mm 1 mps 731 mmHg 6%
12:00 +34°C° 0 mm 2 mps 731 mmHg 6%
13:00 +35°C° 0 mm 2 mps 730 mmHg 6%
14:00 +34°C° 0 mm 2 mps 730 mmHg 7%
15:00 +32°C° 0 mm 2 mps 730 mmHg 9%
16:00 +31°C° 0 mm 2 mps 730 mmHg 10%
17:00 +26°C° 0 mm 2 mps 730 mmHg 20%
18:00 +22°C° 0 mm 1 mps 729 mmHg 31%
19:00 +18°C° 0 mm 1 mps 729 mmHg 42%
20:00 +18°C° 0 mm 1 mps 729 mmHg 40%
21:00 +18°C° 0 mm 1 mps 730 mmHg 38%
22:00 +18°C° 0 mm 1 mps 730 mmHg 36%
23:00 +18°C° 0 mm 1 mps 730 mmHg 35%

2 Noviembre, Lunes

Tiempo Temperatura Precipitaciones Viento Presión Humedad
00:00 +18°C° 0 mm 1 mps 729 mmHg 35%
01:00 +18°C° 0 mm 1 mps 729 mmHg 34%
02:00 +17°C° 0 mm 2 mps 729 mmHg 34%
03:00 +17°C° 0 mm 2 mps 729 mmHg 34%
04:00 +17°C° 0 mm 2 mps 729 mmHg 35%
05:00 +18°C° 0 mm 2 mps 730 mmHg 29%
06:00 +20°C° 0 mm 2 mps 730 mmHg 23%
07:00 +21°C° 0 mm 2 mps 730 mmHg 17%
08:00 +26°C° 0 mm 2 mps 730 mmHg 14%
09:00 +29°C° 0 mm 1 mps 731 mmHg 12%
10:00 +33°C° 0 mm 1 mps 731 mmHg 9%
11:00 +34°C° 0 mm 1 mps 731 mmHg 9%
12:00 +34°C° 0 mm 1 mps 730 mmHg 9%
13:00 +35°C° 0 mm 1 mps 730 mmHg 8%
14:00 +35°C° 0 mm 2 mps 729 mmHg 9%
15:00 +34°C° 0 mm 3 mps 729 mmHg 10%
16:00 +33°C° 0 mm 3 mps 728 mmHg 11%
17:00 +28°C° 0 mm 2 mps 728 mmHg 18%
18:00 +24°C° 0 mm 2 mps 728 mmHg 26%
19:00 +20°C° 0 mm 1 mps 728 mmHg 33%
20:00 +19°C° 0 mm 1 mps 728 mmHg 36%
21:00 +19°C° 0 mm 1 mps 728 mmHg 40%
22:00 +18°C° 0 mm 1 mps 728 mmHg 43%
23:00 +18°C° 0 mm 1 mps 727 mmHg 43%
Mostrar más

Necesitamos Su Consentimiento

Meteoprog y nuestros Proveedores de Servicios pueden almacenar y acceder a sus datos personales como cookies, identificadores de dispositivo u otras tecnologías similares de su dispositivo y procesar dichos datos para personalizar contenido y anuncios, además de ofrecer funciones de redes sociales y analizar el tráfico.

  • Almacenar y/o acceder a información en su dispositivo

    Se puede almacenar o acceder a cookies, identificadores de dispositivo u otra información de su dispositivo para los fines anteriormente indicados.

  • Anuncios y contenido personalizados, medición de anuncios y contenido, percepciones del público, y desarrollo de productos

    Los anuncios y el contenido pueden personalizarse en base a su perfil. Se pueden añadir más datos para personalizar mejor los anuncios y contenidos. Se puede medir el rendimiento de los anuncios y contenidos. Se puede obtener la percepción sobre el público que ha visto los anuncios y contenidos. Dichos datos pueden usarse para desarrollar o mejorar la experiencia del usuario, sistemas y software.

Al hacer clic en ‘Estoy De Acuerdo’ usted permitirá el uso de las cookies, identificadores de dispositivo, balizas web u otras tecnologías similares indicadas. Su configuración puede cambiarse desde el navegador de su dispositivo.

Para ciertos fines, los intereses legítimos pueden ser considerados por encima del consentimiento. Puede leer más sobre ello en nuestra Política de Privacidad y Cookies.